Time,TemperatureF,DewpointF,PressureIn,WindDirection,WindDirectionDegrees,WindSpeedMPH,WindSpeedGustMPH,Humidity,HourlyPrecipIn,Conditions,Clouds,dailyrainin,SoftwareType,DateUTC
2013-03-09 00:01:00,63.9,19.6,26.10,WSW,255,11.9,11.9,18,0.00,,---,0.00,VWS V13.01,2013-03-09 06:01:00,
2013-03-09 00:06:00,63.7,19.4,26.10,WNW,288,12.8,12.8,18,0.00,,---,0.00,VWS V13.01,2013-03-09 06:06:00,
2013-03-09 00:11:00,63.7,19.4,26.10,WNW,297,13.2,13.2,18,0.00,,---,0.00,VWS V13.01,2013-03-09 06:11:00,
2013-03-09 00:16:00,63.5,19.3,26.10,WNW,297,13.2,13.2,18,0.00,,---,0.00,VWS V13.01,2013-03-09 06:16:00,
2013-03-09 00:21:00,63.1,19.0,26.10,WNW,297,13.2,13.2,18,0.00,,---,0.00,VWS V13.01,2013-03-09 06:21:00,
2013-03-09 00:26:00,63.1,19.0,26.10,WSW,255,13.6,13.6,18,0.00,,---,0.00,VWS V13.01,2013-03-09 06:26:00,
2013-03-09 00:31:00,62.6,18.5,26.10,West,272,15.4,15.4,18,0.00,,---,0.00,VWS V13.01,2013-03-09 06:31:00,
2013-03-09 00:36:00,62.6,18.5,26.10,West,272,15.4,15.4,18,0.00,,---,0.00,VWS V13.01,2013-03-09 06:36:00,
2013-03-09 00:41:00,62.2,19.5,26.10,WNW,284,12.8,12.8,19,0.00,,---,0.00,VWS V13.01,2013-03-09 06:41:00,
2013-03-09 00:46:00,62.1,19.3,26.10,West,279,16.8,16.8,19,0.00,,---,0.00,VWS V13.01,2013-03-09 06:46:00,
2013-03-09 00:51:00,62.1,19.3,26.10,West,279,16.8,16.8,19,0.00,,---,0.00,VWS V13.01,2013-03-09 06:51:00,
2013-03-09 00:56:00,61.7,19.0,26.10,West,268,15.0,15.0,19,0.00,,---,0.00,VWS V13.01,2013-03-09 06:56:00,
2013-03-09 01:01:00,61.7,19.0,26.10,West,271,18.8,18.8,19,0.00,,---,0.00,VWS V13.01,2013-03-09 07:01:00,
2013-03-09 01:06:00,61.3,18.8,26.10,West,271,15.0,15.0,19,0.00,,---,0.00,VWS V13.01,2013-03-09 07:06:00,
2013-03-09 01:11:00,61.2,18.6,26.10,WSW,246,10.1,15.0,19,0.00,,---,0.00,VWS V13.01,2013-03-09 07:11:00,
2013-03-09 01:16:00,61.2,18.6,26.10,West,280,17.4,17.4,19,0.00,,---,0.00,VWS V13.01,2013-03-09 07:16:00,
2013-03-09 01:21:00,61.3,18.8,26.10,WNW,301,15.0,15.0,19,0.00,,---,0.00,VWS V13.01,2013-03-09 07:21:00,
2013-03-09 01:26:00,61.2,18.6,26.10,West,265,15.0,15.0,19,0.00,,---,0.00,VWS V13.01,2013-03-09 07:26:00,
2013-03-09 01:31:00,61.0,18.5,26.10,WNW,292,16.3,16.3,19,0.00,,---,0.00,VWS V13.01,2013-03-09 07:31:00,
2013-03-09 01:36:00,61.0,18.5,26.10,WNW,287,12.3,12.3,19,0.00,,---,0.00,VWS V13.01,2013-03-09 07:36:00,
2013-03-09 01:41:00,60.6,18.2,26.07,WNW,284,13.2,13.2,19,0.00,,---,0.00,VWS V13.01,2013-03-09 07:41:00,
2013-03-09 01:46:00,60.6,18.2,26.07,WNW,284,16.8,16.8,19,0.00,,---,0.00,VWS V13.01,2013-03-09 07:46:00,
2013-03-09 01:51:00,60.4,18.0,26.07,West,271,17.9,17.9,19,0.00,,---,0.00,VWS V13.01,2013-03-09 07:51:00,
2013-03-09 01:56:00,60.1,17.7,26.07,WNW,298,17.4,17.4,19,0.00,,---,0.00,VWS V13.01,2013-03-09 07:56:00,
2013-03-09 02:01:00,60.1,17.7,26.10,WNW,289,19.2,19.2,19,0.00,,---,0.00,VWS V13.01,2013-03-09 08:01:00,
2013-03-09 02:06:00,60.1,17.7,26.10,WNW,289,19.2,19.2,19,0.00,,---,0.00,VWS V13.01,2013-03-09 08:06:00,
2013-03-09 02:11:00,60.1,17.7,26.07,WNW,288,15.0,15.0,19,0.00,,---,0.00,VWS V13.01,2013-03-09 08:11:00,
2013-03-09 02:16:00,60.1,17.7,26.07,WNW,289,16.8,16.8,19,0.00,,---,0.00,VWS V13.01,2013-03-09 08:16:00,
2013-03-09 02:21:00,60.1,17.7,26.07,West,267,15.4,15.4,19,0.00,,---,0.00,VWS V13.01,2013-03-09 08:21:00,
2013-03-09 02:26:00,60.1,17.7,26.07,West,274,20.1,20.1,19,0.00,,---,0.00,VWS V13.01,2013-03-09 08:26:00,
2013-03-09 02:31:00,60.1,17.7,26.07,West,264,13.6,16.8,19,0.00,,---,0.00,VWS V13.01,2013-03-09 08:31:00,
2013-03-09 02:36:00,60.3,17.9,26.07,WNW,285,18.3,18.3,19,0.00,,---,0.00,VWS V13.01,2013-03-09 08:36:00,
2013-03-09 02:41:00,60.3,17.9,26.07,West,259,8.7,8.7,19,0.00,,---,0.00,VWS V13.01,2013-03-09 08:41:00,
2013-03-09 02:46:00,60.3,17.9,26.07,WSW,244,17.4,17.4,19,0.00,,---,0.00,VWS V13.01,2013-03-09 08:46:00,
2013-03-09 02:51:00,60.3,17.9,26.07,WNW,299,13.6,13.6,19,0.00,,---,0.00,VWS V13.01,2013-03-09 08:51:00,
2013-03-09 02:56:00,60.3,17.9,26.07,WNW,294,12.8,12.8,19,0.00,,---,0.00,VWS V13.01,2013-03-09 08:56:00,
2013-03-09 03:01:00,60.3,17.9,26.07,West,260,18.3,18.3,19,0.00,,---,0.00,VWS V13.01,2013-03-09 09:01:00,
2013-03-09 03:06:00,58.6,16.5,26.07,West,271,15.0,19.2,19,0.00,,---,0.00,VWS V13.01,2013-03-09 09:06:00,
2013-03-09 03:11:00,58.8,16.7,26.07,WNW,290,8.3,8.3,19,0.00,,---,0.00,VWS V13.01,2013-03-09 09:11:00,
2013-03-09 03:16:00,58.8,16.7,26.07,WSW,258,13.2,13.2,19,0.00,,---,0.00,VWS V13.01,2013-03-09 09:16:00,
2013-03-09 03:21:00,58.8,16.7,26.07,WSW,252,11.0,11.0,19,0.00,,---,0.00,VWS V13.01,2013-03-09 09:21:00,
2013-03-09 03:26:00,58.8,16.7,26.07,West,275,23.3,23.3,19,0.00,,---,0.00,VWS V13.01,2013-03-09 09:26:00,
2013-03-09 03:31:00,58.8,16.7,26.07,WNW,287,17.0,17.0,19,0.00,,---,0.00,VWS V13.01,2013-03-09 09:31:00,
2013-03-09 03:36:00,58.8,16.7,26.07,West,264,20.6,20.6,19,0.00,,---,0.00,VWS V13.01,2013-03-09 09:36:00,
2013-03-09 03:41:00,58.8,16.7,26.07,WSW,257,15.9,15.9,19,0.00,,---,0.00,VWS V13.01,2013-03-09 09:41:00,
2013-03-09 03:46:00,58.8,16.7,26.07,West,260,14.5,14.5,19,0.00,,---,0.00,VWS V13.01,2013-03-09 09:46:00,
2013-03-09 03:51:00,57.9,15.9,26.07,WNW,288,15.4,15.4,19,0.00,,---,0.00,VWS V13.01,2013-03-09 09:51:00,
2013-03-09 03:56:00,57.9,15.9,26.07,West,270,12.8,12.8,19,0.00,,---,0.00,VWS V13.01,2013-03-09 09:56:00,
2013-03-09 04:01:00,57.9,15.9,26.07,WSW,251,16.8,16.8,19,0.00,,---,0.00,VWS V13.01,2013-03-09 10:01:00,
2013-03-09 04:06:00,58.1,16.1,26.07,West,267,15.9,15.9,19,0.00,,---,0.00,VWS V13.01,2013-03-09 10:06:00,
2013-03-09 04:11:00,58.1,16.1,26.07,WNW,293,11.9,11.9,19,0.00,,---,0.00,VWS V13.01,2013-03-09 10:11:00,
2013-03-09 04:16:00,58.1,16.1,26.07,WNW,297,13.2,13.2,19,0.00,,---,0.00,VWS V13.01,2013-03-09 10:16:00,
2013-03-09 04:21:00,58.1,16.1,26.07,West,262,18.3,19.7,19,0.00,,---,0.00,VWS V13.01,2013-03-09 10:21:00,
2013-03-09 04:26:00,57.2,15.3,26.07,West,266,12.3,12.3,19,0.00,,---,0.00,VWS V13.01,2013-03-09 10:26:00,
2013-03-09 04:31:00,57.2,15.3,26.07,WSW,253,13.2,13.2,19,0.00,,---,0.00,VWS V13.01,2013-03-09 10:31:00,
2013-03-09 04:36:00,57.2,15.3,26.07,SW,233,12.8,16.8,19,0.00,,---,0.00,VWS V13.01,2013-03-09 10:36:00,
2013-03-09 04:41:00,57.2,15.3,26.07,West,265,17.0,17.0,19,0.00,,---,0.00,VWS V13.01,2013-03-09 10:41:00,
2013-03-09 04:46:00,57.2,15.3,26.07,West,262,10.5,10.5,19,0.00,,---,0.00,VWS V13.01,2013-03-09 10:46:00,
2013-03-09 04:51:00,57.2,15.3,26.07,WNW,288,15.4,15.4,19,0.00,,---,0.00,VWS V13.01,2013-03-09 10:51:00,
2013-03-09 04:56:00,57.2,15.3,26.07,West,272,15.4,15.4,19,0.00,,---,0.00,VWS V13.01,2013-03-09 10:56:00,
2013-03-09 05:01:00,56.7,16.1,26.07,West,272,15.4,15.4,20,0.00,,---,0.00,VWS V13.01,2013-03-09 11:01:00,
2013-03-09 05:06:00,56.7,16.1,26.07,WSW,256,13.2,13.2,20,0.00,,---,0.00,VWS V13.01,2013-03-09 11:06:00,
2013-03-09 05:11:00,56.7,16.1,26.07,WNW,292,17.9,17.9,20,0.00,,---,0.00,VWS V13.01,2013-03-09 11:11:00,
2013-03-09 05:16:00,56.7,16.1,26.07,West,270,11.0,11.0,20,0.00,,---,0.00,VWS V13.01,2013-03-09 11:16:00,
2013-03-09 05:21:00,56.7,16.1,26.07,WNW,284,14.1,14.1,20,0.00,,---,0.00,VWS V13.01,2013-03-09 11:21:00,
2013-03-09 05:26:00,56.7,16.1,26.07,WNW,298,12.8,15.4,20,0.00,,---,0.00,VWS V13.01,2013-03-09 11:26:00,
2013-03-09 05:31:00,56.7,16.1,26.07,West,270,10.1,10.1,20,0.00,,---,0.00,VWS V13.01,2013-03-09 11:31:00,
2013-03-09 05:36:00,56.7,16.1,26.07,WNW,298,8.1,8.1,20,0.00,,---,0.00,VWS V13.01,2013-03-09 11:36:00,
2013-03-09 05:41:00,55.8,15.3,26.10,WNW,286,16.3,16.3,20,0.00,,---,0.00,VWS V13.01,2013-03-09 11:41:00,
2013-03-09 05:46:00,55.8,15.3,26.10,West,263,10.5,10.5,20,0.00,,---,0.00,VWS V13.01,2013-03-09 11:46:00,
2013-03-09 05:51:00,55.8,15.3,26.10,WSW,238,15.0,15.0,20,0.00,,---,0.00,VWS V13.01,2013-03-09 11:51:00,
2013-03-09 05:56:00,55.8,15.3,26.07,WNW,292,8.1,8.1,20,0.00,,---,0.00,VWS V13.01,2013-03-09 11:56:00,
2013-03-09 06:01:00,55.8,15.3,26.07,West,273,10.1,10.1,20,0.00,,---,0.00,VWS V13.01,2013-03-09 12:01:00,
2013-03-09 06:06:00,55.8,15.3,26.07,WNW,301,11.0,13.2,20,0.00,,---,0.00,VWS V13.01,2013-03-09 12:06:00,
2013-03-09 06:11:00,55.8,15.3,26.07,WNW,287,10.1,10.5,20,0.00,,---,0.00,VWS V13.01,2013-03-09 12:11:00,
2013-03-09 06:16:00,54.1,11.6,26.10,West,281,10.5,10.5,18,0.00,,---,0.00,VWS V13.01,2013-03-09 12:16:00,
2013-03-09 06:21:00,54.1,11.6,26.10,WNW,301,11.0,11.0,18,0.00,,---,0.00,VWS V13.01,2013-03-09 12:21:00,
2013-03-09 06:26:00,54.1,11.6,26.10,WSW,257,8.7,8.7,18,0.00,,---,0.00,VWS V13.01,2013-03-09 12:26:00,
2013-03-09 06:31:00,54.1,11.6,26.10,West,261,10.5,10.5,18,0.00,,---,0.00,VWS V13.01,2013-03-09 12:31:00,
2013-03-09 06:36:00,54.1,11.6,26.10,WNW,284,8.7,8.7,18,0.00,,---,0.00,VWS V13.01,2013-03-09 12:36:00,
2013-03-09 06:41:00,54.1,11.6,26.07,West,281,10.5,10.5,18,0.00,,---,0.00,VWS V13.01,2013-03-09 12:41:00,
2013-03-09 06:46:00,54.0,11.4,26.07,WNW,284,8.3,11.0,18,0.00,,---,0.00,VWS V13.01,2013-03-09 12:46:00,
2013-03-09 06:51:00,53.8,11.3,26.07,WNW,284,10.5,10.5,18,0.00,,---,0.00,VWS V13.01,2013-03-09 12:51:00,
2013-03-09 07:24:00,53.8,11.3,26.07,West,273,8.3,8.3,18,0.00,,---,0.00,VWS V13.01,2013-03-09 13:24:00,
2013-03-09 07:31:00,54.0,11.4,26.10,West,273,8.3,8.3,18,0.00,,---,0.00,VWS V13.01,2013-03-09 13:31:00,
2013-03-09 07:36:00,54.5,11.9,26.10,West,273,8.3,8.3,18,0.00,,---,0.00,VWS V13.01,2013-03-09 13:36:00,
2013-03-09 07:41:00,54.5,11.9,26.10,West,273,8.3,8.3,18,0.00,,---,0.00,VWS V13.01,2013-03-09 13:41:00,
2013-03-09 07:46:00,55.6,15.2,26.10,West,273,8.3,8.3,20,0.00,,---,0.00,VWS V13.01,2013-03-09 13:46:00,
2013-03-09 07:51:00,56.8,16.2,26.10,West,273,8.3,8.3,20,0.00,,---,0.00,VWS V13.01,2013-03-09 13:51:00,
2013-03-09 07:56:00,57.2,15.3,26.10,West,273,8.3,8.3,19,0.00,,---,0.00,VWS V13.01,2013-03-09 13:56:00,
2013-03-09 08:01:00,58.8,16.7,26.10,West,273,8.3,8.3,19,0.00,,---,0.00,VWS V13.01,2013-03-09 14:01:00,
2013-03-09 08:06:00,59.9,17.6,26.10,West,273,8.3,8.3,19,0.00,,---,0.00,VWS V13.01,2013-03-09 14:06:00,
2013-03-09 08:11:00,60.6,18.2,26.10,West,273,8.3,8.3,19,0.00,,---,0.00,VWS V13.01,2013-03-09 14:11:00,
2013-03-09 08:16:00,61.5,18.9,26.10,West,273,8.3,8.3,19,0.00,,---,0.00,VWS V13.01,2013-03-09 14:16:00,
2013-03-09 08:21:00,61.9,19.2,26.10,NW,306,8.7,8.7,19,0.00,,---,0.00,VWS V13.01,2013-03-09 14:21:00,
2013-03-09 08:26:00,63.0,18.8,26.10,NW,306,8.7,8.7,18,0.00,,---,0.00,VWS V13.01,2013-03-09 14:26:00,
2013-03-09 08:31:00,63.5,19.3,26.13,NW,306,8.7,8.7,18,0.00,,---,0.00,VWS V13.01,2013-03-09 14:31:00,
2013-03-09 08:36:00,63.3,19.1,26.13,NE,36,4.9,4.9,18,0.00,,---,0.00,VWS V13.01,2013-03-09 14:36:00,
2013-03-09 08:41:00,63.3,19.1,26.13,NE,51,3.1,3.1,18,0.00,,---,0.00,VWS V13.01,2013-03-09 14:41:00,
2013-03-09 08:46:00,63.0,18.8,26.13,NNW,335,2.7,4.9,18,0.00,,---,0.00,VWS V13.01,2013-03-09 14:46:00,
2013-03-09 08:51:00,63.7,19.4,26.13,NNE,18,6.3,6.3,18,0.00,,---,0.00,VWS V13.01,2013-03-09 14:51:00,
2013-03-09 08:56:00,64.0,19.7,26.13,North,3,5.4,5.4,18,0.00,,---,0.00,VWS V13.01,2013-03-09 14:56:00,
2013-03-09 09:01:00,65.1,20.6,26.13,North,3,5.4,5.4,18,0.00,,---,0.00,VWS V13.01,2013-03-09 15:01:00,
2013-03-09 09:06:00,66.6,20.4,26.13,North,3,5.4,5.4,17,0.00,,---,0.00,VWS V13.01,2013-03-09 15:06:00,
2013-03-09 09:11:00,67.3,21.0,26.13,North,357,4.9,4.9,17,0.00,,---,0.00,VWS V13.01,2013-03-09 15:11:00,
2013-03-09 09:16:00,68.9,22.3,26.13,North,357,4.9,4.9,17,0.00,,---,0.00,VWS V13.01,2013-03-09 15:16:00,
2013-03-09 09:21:00,69.4,22.8,26.13,North,357,4.9,4.9,17,0.00,,---,0.00,VWS V13.01,2013-03-09 15:21:00,
2013-03-09 09:26:00,70.0,23.2,26.13,North,357,4.9,4.9,17,0.00,,---,0.00,VWS V13.01,2013-03-09 15:26:00,
2013-03-09 09:31:00,70.7,23.8,26.13,North,357,4.9,4.9,17,0.00,,---,0.00,VWS V13.01,2013-03-09 15:31:00,
2013-03-09 09:36:00,70.0,23.2,26.13,NW,321,10.5,10.5,17,0.00,,---,0.00,VWS V13.01,2013-03-09 15:36:00,
2013-03-09 09:41:00,70.0,23.2,26.13,NW,316,6.3,6.3,17,0.00,,---,0.00,VWS V13.01,2013-03-09 15:41:00,
2013-03-09 09:46:00,70.3,23.5,26.13,NW,316,6.3,6.3,17,0.00,,---,0.00,VWS V13.01,2013-03-09 15:46:00,
2013-03-09 09:51:00,70.0,23.2,26.13,WNW,292,8.1,8.1,17,0.00,,---,0.00,VWS V13.01,2013-03-09 15:51:00,
2013-03-09 09:56:00,70.0,23.2,26.13,WNW,292,8.1,8.1,17,0.00,,---,0.00,VWS V13.01,2013-03-09 15:56:00,
2013-03-09 10:01:00,69.1,22.5,26.13,WNW,288,8.1,8.1,17,0.00,,---,0.00,VWS V13.01,2013-03-09 16:01:00,
2013-03-09 10:06:00,69.1,22.5,26.13,WNW,296,15.0,15.0,17,0.00,,---,0.00,VWS V13.01,2013-03-09 16:06:00,
2013-03-09 10:11:00,68.5,22.0,26.13,West,276,6.3,15.0,17,0.00,,---,0.00,VWS V13.01,2013-03-09 16:11:00,
2013-03-09 10:16:00,69.4,22.8,26.13,West,276,6.3,6.3,17,0.00,,---,0.00,VWS V13.01,2013-03-09 16:16:00,
2013-03-09 10:21:00,70.0,23.2,26.13,West,276,6.3,6.3,17,0.00,,---,0.00,VWS V13.01,2013-03-09 16:21:00,
2013-03-09 10:26:00,68.9,22.3,26.13,West,281,15.0,15.0,17,0.00,,---,0.00,VWS V13.01,2013-03-09 16:26:00,
2013-03-09 10:31:00,68.9,22.3,26.13,West,281,15.0,15.0,17,0.00,,---,0.00,VWS V13.01,2013-03-09 16:31:00,
2013-03-09 10:36:00,68.7,22.2,26.13,WNW,295,15.4,15.4,17,0.00,,---,0.00,VWS V13.01,2013-03-09 16:36:00,
2013-03-09 10:41:00,68.7,22.2,26.13,NW,315,10.1,15.4,17,0.00,,---,0.00,VWS V13.01,2013-03-09 16:41:00,
2013-03-09 10:46:00,69.1,22.5,26.13,NW,306,11.0,11.0,17,0.00,,---,0.00,VWS V13.01,2013-03-09 16:46:00,
2013-03-09 10:51:00,70.0,23.2,26.13,NW,307,10.1,10.1,17,0.00,,---,0.00,VWS V13.01,2013-03-09 16:51:00,
2013-03-09 10:56:00,70.0,23.2,26.13,NW,314,8.7,8.7,17,0.00,,---,0.00,VWS V13.01,2013-03-09 16:56:00,
2013-03-09 11:01:00,70.9,23.9,26.13,NW,315,8.1,8.1,17,0.00,,---,0.00,VWS V13.01,2013-03-09 17:01:00,
2013-03-09 11:06:00,71.2,24.2,26.13,NW,323,10.5,11.0,17,0.00,,---,0.00,VWS V13.01,2013-03-09 17:06:00,
2013-03-09 11:11:00,70.5,23.6,26.13,WNW,291,10.1,10.1,17,0.00,,---,0.00,VWS V13.01,2013-03-09 17:11:00,
2013-03-09 11:16:00,70.5,23.6,26.13,NW,312,13.2,13.2,17,0.00,,---,0.00,VWS V13.01,2013-03-09 17:16:00,
2013-03-09 11:21:00,70.0,23.2,26.13,WNW,295,15.0,15.0,17,0.00,,---,0.00,VWS V13.01,2013-03-09 17:21:00,
2013-03-09 11:26:00,70.0,23.2,26.13,WNW,300,12.3,12.3,17,0.00,,---,0.00,VWS V13.01,2013-03-09 17:26:00,
2013-03-09 11:31:00,70.0,23.2,26.13,WNW,297,8.3,8.3,17,0.00,,---,0.00,VWS V13.01,2013-03-09 17:31:00,
2013-03-09 11:36:00,68.9,22.3,26.13,NNW,333,12.8,12.8,17,0.00,,---,0.00,VWS V13.01,2013-03-09 17:36:00,
2013-03-09 11:41:00,68.9,22.3,26.13,WSW,258,11.0,12.8,17,0.00,,---,0.00,VWS V13.01,2013-03-09 17:41:00,
2013-03-09 11:46:00,68.7,22.2,26.13,WNW,298,12.8,12.8,17,0.00,,---,0.00,VWS V13.01,2013-03-09 17:46:00,
2013-03-09 11:51:00,68.5,22.0,26.13,NW,318,11.0,11.0,17,0.00,,---,0.00,VWS V13.01,2013-03-09 17:51:00,
2013-03-09 11:56:00,68.5,22.0,26.13,NW,313,13.2,13.2,17,0.00,,---,0.00,VWS V13.01,2013-03-09 17:56:00,
2013-03-09 12:01:00,68.4,21.9,26.13,WNW,298,10.1,21.0,17,0.00,,---,0.00,VWS V13.01,2013-03-09 18:01:00,
2013-03-09 12:06:00,68.4,21.9,26.13,WNW,298,10.1,10.1,17,0.00,,---,0.00,VWS V13.01,2013-03-09 18:06:00,
2013-03-09 12:11:00,69.3,22.6,26.13,WNW,294,12.8,12.8,17,0.00,,---,0.00,VWS V13.01,2013-03-09 18:11:00,
2013-03-09 12:16:00,68.9,22.3,26.13,NW,314,14.5,17.0,17,0.00,,---,0.00,VWS V13.01,2013-03-09 18:16:00,
2013-03-09 12:21:00,68.9,22.3,26.13,NW,310,13.6,13.6,17,0.00,,---,0.00,VWS V13.01,2013-03-09 18:21:00,
2013-03-09 12:26:00,67.8,21.5,26.13,NW,306,15.0,15.0,17,0.00,,---,0.00,VWS V13.01,2013-03-09 18:26:00,
2013-03-09 12:31:00,67.8,21.5,26.13,WNW,294,17.4,17.4,17,0.00,,---,0.00,VWS V13.01,2013-03-09 18:31:00,
2013-03-09 12:36:00,67.5,21.2,26.13,NW,306,15.4,15.4,17,0.00,,---,0.00,VWS V13.01,2013-03-09 18:36:00,
2013-03-09 12:41:00,67.5,21.2,26.13,WNW,299,15.0,15.4,17,0.00,,---,0.00,VWS V13.01,2013-03-09 18:41:00,
2013-03-09 12:46:00,67.6,21.3,26.13,NW,312,15.9,15.9,17,0.00,,---,0.00,VWS V13.01,2013-03-09 18:46:00,
2013-03-09 12:51:00,67.6,21.3,26.13,NW,313,15.4,15.4,17,0.00,,---,0.00,VWS V13.01,2013-03-09 18:51:00,
2013-03-09 12:56:00,67.5,21.2,26.13,WNW,293,12.8,12.8,17,0.00,,---,0.00,VWS V13.01,2013-03-09 18:56:00,
2013-03-09 13:01:00,67.8,21.5,26.13,NW,305,10.5,10.5,17,0.00,,---,0.00,VWS V13.01,2013-03-09 19:01:00,
2013-03-09 13:06:00,67.8,21.5,26.13,NNW,329,10.1,10.1,17,0.00,,---,0.00,VWS V13.01,2013-03-09 19:06:00,
2013-03-09 13:11:00,68.0,21.6,26.13,NW,313,15.4,15.4,17,0.00,,---,0.00,VWS V13.01,2013-03-09 19:11:00,
2013-03-09 13:16:00,67.5,21.2,26.13,WNW,289,12.8,12.8,17,0.00,,---,0.00,VWS V13.01,2013-03-09 19:16:00,
2013-03-09 13:22:00,67.3,21.0,26.13,NW,307,8.3,8.3,17,0.00,,---,0.00,VWS V13.01,2013-03-09 19:22:00,
2013-03-09 13:27:00,67.8,21.5,26.13,WSW,247,8.7,8.7,17,0.00,,---,0.00,VWS V13.01,2013-03-09 19:27:00,
2013-03-09 13:32:00,67.8,21.5,26.13,WNW,291,10.5,10.5,17,0.00,,---,0.00,VWS V13.01,2013-03-09 19:32:00,
2013-03-09 13:37:00,68.0,21.6,26.10,NW,312,13.2,13.2,17,0.00,,---,0.00,VWS V13.01,2013-03-09 19:37:00,
2013-03-09 13:42:00,67.8,21.5,26.10,NW,318,12.3,12.3,17,0.00,,---,0.00,VWS V13.01,2013-03-09 19:42:00,
2013-03-09 13:47:00,67.6,21.3,26.10,NNW,338,12.8,12.8,17,0.00,,---,0.00,VWS V13.01,2013-03-09 19:47:00,
2013-03-09 13:52:00,67.6,21.3,26.10,West,279,10.5,10.5,17,0.00,,---,0.00,VWS V13.01,2013-03-09 19:52:00,
2013-03-09 13:57:00,68.2,21.7,26.10,WNW,297,15.0,15.0,17,0.00,,---,0.00,VWS V13.01,2013-03-09 19:57:00,
2013-03-09 14:02:00,68.4,21.9,26.10,NW,307,12.3,12.3,17,0.00,,---,0.00,VWS V13.01,2013-03-09 20:02:00,
2013-03-09 14:07:00,68.4,21.9,26.10,WNW,290,12.8,12.8,17,0.00,,---,0.00,VWS V13.01,2013-03-09 20:07:00,
2013-03-09 14:12:00,67.5,21.2,26.10,WNW,288,11.9,11.9,17,0.00,,---,0.00,VWS V13.01,2013-03-09 20:12:00,
2013-03-09 14:17:00,68.0,21.6,26.10,NW,313,12.3,12.3,17,0.00,,---,0.00,VWS V13.01,2013-03-09 20:17:00,
2013-03-09 14:22:00,68.2,21.7,26.10,WNW,288,8.7,8.7,17,0.00,,---,0.00,VWS V13.01,2013-03-09 20:22:00,
2013-03-09 14:27:00,68.2,21.7,26.10,WNW,303,12.8,12.8,17,0.00,,---,0.00,VWS V13.01,2013-03-09 20:27:00,
2013-03-09 14:32:00,68.2,21.7,26.07,West,271,12.8,12.8,17,0.00,,---,0.00,VWS V13.01,2013-03-09 20:32:00,
2013-03-09 14:37:00,67.6,21.3,26.07,WNW,294,12.8,12.8,17,0.00,,---,0.00,VWS V13.01,2013-03-09 20:37:00,
2013-03-09 14:42:00,67.6,21.3,26.07,West,259,10.1,13.6,17,0.00,,---,0.00,VWS V13.01,2013-03-09 20:42:00,
2013-03-09 14:51:00,66.7,20.6,26.07,WSW,242,8.1,8.1,17,0.00,,---,0.00,VWS V13.01,2013-03-09 20:51:00,
2013-03-09 14:56:00,66.2,20.1,26.07,WNW,291,5.8,10.1,17,0.00,,---,0.00,VWS V13.01,2013-03-09 20:56:00,
2013-03-09 15:01:00,68.2,21.7,26.07,NW,306,11.0,11.0,17,0.00,,---,0.00,VWS V13.01,2013-03-09 21:01:00,
2013-03-09 15:06:00,67.5,21.2,26.07,WNW,297,12.8,12.8,17,0.00,,---,0.00,VWS V13.01,2013-03-09 21:06:00,
2013-03-09 15:11:00,67.5,21.2,26.07,West,272,12.8,15.4,17,0.00,,---,0.00,VWS V13.01,2013-03-09 21:11:00,
2013-03-09 15:16:00,67.3,21.0,26.07,WNW,302,11.0,15.4,17,0.00,,---,0.00,VWS V13.01,2013-03-09 21:16:00,
2013-03-09 15:21:00,67.1,20.9,26.07,NNW,334,8.3,8.7,17,0.00,,---,0.00,VWS V13.01,2013-03-09 21:21:00,
2013-03-09 15:26:00,68.2,21.7,26.07,NW,316,11.0,11.0,17,0.00,,---,0.00,VWS V13.01,2013-03-09 21:26:00,
2013-03-09 15:31:00,67.5,21.2,26.07,NW,317,11.0,12.3,17,0.00,,---,0.00,VWS V13.01,2013-03-09 21:31:00,
2013-03-09 15:36:00,66.7,20.6,26.07,WNW,301,8.7,16.8,17,0.00,,---,0.00,VWS V13.01,2013-03-09 21:36:00,
2013-03-09 15:41:00,66.6,20.4,26.07,NW,325,13.2,15.4,17,0.00,,---,0.00,VWS V13.01,2013-03-09 21:41:00,
2013-03-09 15:46:00,66.2,20.1,26.07,WNW,300,8.3,10.5,17,0.00,,---,0.00,VWS V13.01,2013-03-09 21:46:00,
2013-03-09 15:51:00,65.5,20.9,26.07,WNW,294,12.8,12.8,18,0.00,,---,0.00,VWS V13.01,2013-03-09 21:51:00,
2013-03-09 15:56:00,65.7,21.0,26.07,NNW,331,12.8,12.8,18,0.00,,---,0.00,VWS V13.01,2013-03-09 21:56:00,
2013-03-09 16:01:00,66.2,20.1,26.07,WNW,295,10.5,12.3,17,0.00,,---,0.00,VWS V13.01,2013-03-09 22:01:00,
2013-03-09 16:06:00,65.7,21.0,26.07,NW,318,8.3,12.3,18,0.00,,---,0.00,VWS V13.01,2013-03-09 22:06:00,
2013-03-09 16:11:00,65.1,20.6,26.07,NW,312,7.6,7.6,18,0.00,,---,0.00,VWS V13.01,2013-03-09 22:11:00,
2013-03-09 16:16:00,65.1,20.6,26.07,NW,304,8.3,8.7,18,0.00,,---,0.00,VWS V13.01,2013-03-09 22:16:00,
2013-03-09 16:21:00,65.3,20.7,26.07,NW,304,12.8,13.2,18,0.00,,---,0.00,VWS V13.01,2013-03-09 22:21:00,
2013-03-09 16:26:00,64.4,20.0,26.07,WNW,300,12.8,12.8,18,0.00,,---,0.00,VWS V13.01,2013-03-09 22:26:00,
2013-03-09 16:31:00,64.2,19.9,26.07,WNW,303,15.0,15.0,18,0.00,,---,0.00,VWS V13.01,2013-03-09 22:31:00,
2013-03-09 16:36:00,63.7,19.4,26.07,West,269,15.0,15.0,18,0.00,,---,0.00,VWS V13.01,2013-03-09 22:36:00,
2013-03-09 16:41:00,63.3,19.1,26.07,WNW,296,10.5,13.6,18,0.00,,---,0.00,VWS V13.01,2013-03-09 22:41:00,
2013-03-09 16:46:00,63.1,19.0,26.07,NW,308,11.0,15.0,18,0.00,,---,0.00,VWS V13.01,2013-03-09 22:46:00,
2013-03-09 16:51:00,62.8,18.7,26.07,WNW,295,11.4,11.4,18,0.00,,---,0.00,VWS V13.01,2013-03-09 22:51:00,
2013-03-09 16:56:00,62.6,18.5,26.05,NW,315,10.1,12.8,18,0.00,,---,0.00,VWS V13.01,2013-03-09 22:56:00,
2013-03-09 17:01:00,62.6,18.5,26.05,NW,309,8.7,8.7,18,0.00,,---,0.00,VWS V13.01,2013-03-09 23:01:00,
2013-03-09 17:06:00,62.8,18.7,26.05,NW,309,10.5,10.5,18,0.00,,---,0.00,VWS V13.01,2013-03-09 23:06:00,
2013-03-09 17:11:00,62.2,19.5,26.05,WNW,302,8.7,15.4,19,0.00,,---,0.00,VWS V13.01,2013-03-09 23:11:00,
2013-03-09 17:16:00,62.4,19.6,26.05,NW,311,12.3,13.2,19,0.00,,---,0.00,VWS V13.01,2013-03-09 23:16:00,
2013-03-09 17:21:00,61.7,19.0,26.05,NW,308,8.7,8.7,19,0.00,,---,0.00,VWS V13.01,2013-03-09 23:21:00,
2013-03-09 17:26:00,61.9,19.2,26.05,West,277,6.3,10.5,19,0.00,,---,0.00,VWS V13.01,2013-03-09 23:26:00,
2013-03-09 17:31:00,62.1,19.3,26.05,NW,307,8.7,10.5,19,0.00,,---,0.00,VWS V13.01,2013-03-09 23:31:00,
2013-03-09 17:36:00,61.9,19.2,26.05,NW,322,13.2,13.2,19,0.00,,---,0.00,VWS V13.01,2013-03-09 23:36:00,
2013-03-09 17:41:00,61.9,19.2,26.05,WNW,290,12.8,12.8,19,0.00,,---,0.00,VWS V13.01,2013-03-09 23:41:00,
2013-03-09 17:46:00,61.7,19.0,26.05,NW,324,7.6,12.8,19,0.00,,---,0.00,VWS V13.01,2013-03-09 23:46:00,
2013-03-09 17:51:00,61.7,19.0,26.05,NW,321,11.0,11.0,19,0.00,,---,0.00,VWS V13.01,2013-03-09 23:51:00,
2013-03-09 17:56:00,61.7,19.0,26.05,NW,319,8.7,8.7,19,0.00,,---,0.00,VWS V13.01,2013-03-09 23:56:00,
2013-03-09 18:01:00,61.0,18.5,26.05,South,173,7.6,7.6,19,0.00,,---,0.00,VWS V13.01,2013-03-10 00:01:00,
2013-03-09 18:06:00,60.3,17.9,26.05,NE,48,8.3,8.3,19,0.00,,---,0.00,VWS V13.01,2013-03-10 00:06:00,
2013-03-09 18:11:00,60.3,17.9,26.05,NW,326,11.0,11.0,19,0.00,,---,0.00,VWS V13.01,2013-03-10 00:11:00,
2013-03-09 18:16:00,60.3,17.9,26.05,NNE,16,11.9,12.8,19,0.00,,---,0.00,VWS V13.01,2013-03-10 00:16:00,
2013-03-09 18:21:00,60.3,17.9,26.05,NW,313,12.8,12.8,19,0.00,,---,0.00,VWS V13.01,2013-03-10 00:21:00,
2013-03-09 18:26:00,60.3,17.9,26.05,NW,314,12.3,12.3,19,0.00,,---,0.00,VWS V13.01,2013-03-10 00:26:00,
2013-03-09 18:31:00,58.5,13.8,26.05,NW,323,10.5,10.5,17,0.00,,---,0.00,VWS V13.01,2013-03-10 00:31:00,
2013-03-09 18:36:00,57.6,13.1,26.05,NW,318,10.1,10.1,17,0.00,,---,0.00,VWS V13.01,2013-03-10 00:36:00,
2013-03-09 18:41:00,57.6,13.1,26.05,NW,323,10.5,10.5,17,0.00,,---,0.00,VWS V13.01,2013-03-10 00:41:00,
2013-03-09 18:46:00,57.6,13.1,26.05,NW,320,8.1,8.1,17,0.00,,---,0.00,VWS V13.01,2013-03-10 00:46:00,
2013-03-09 18:51:00,55.4,11.3,26.05,NW,312,10.5,10.5,17,0.00,,---,0.00,VWS V13.01,2013-03-10 00:51:00,
2013-03-09 18:56:00,55.4,11.3,26.05,NW,312,10.5,12.8,17,0.00,,---,0.00,VWS V13.01,2013-03-10 00:56:00,
2013-03-09 19:01:00,55.4,11.3,26.07,NNW,331,13.2,13.2,17,0.00,,---,0.00,VWS V13.01,2013-03-10 01:01:00,
2013-03-09 19:06:00,55.4,11.3,26.07,NW,310,12.8,12.8,17,0.00,,---,0.00,VWS V13.01,2013-03-10 01:06:00,
2013-03-09 19:12:00,54.0,11.4,26.07,NNW,331,15.0,15.0,18,0.00,,---,0.00,VWS V13.01,2013-03-10 01:12:00,
2013-03-09 19:17:00,54.0,11.4,26.07,NNW,344,8.1,12.8,18,0.00,,---,0.00,VWS V13.01,2013-03-10 01:17:00,
2013-03-09 19:22:00,54.0,11.4,26.07,NW,322,8.1,8.1,18,0.00,,---,0.00,VWS V13.01,2013-03-10 01:22:00,
2013-03-09 19:27:00,54.0,11.4,26.07,NW,316,11.0,11.0,18,0.00,,---,0.00,VWS V13.01,2013-03-10 01:27:00,
2013-03-09 19:32:00,52.3,10.1,26.07,NW,324,15.0,15.0,18,0.00,,---,0.00,VWS V13.01,2013-03-10 01:32:00,
2013-03-09 19:37:00,52.3,10.1,26.07,NNW,331,8.7,8.7,18,0.00,,---,0.00,VWS V13.01,2013-03-10 01:37:00,
2013-03-09 19:42:00,52.2,10.0,26.07,NNW,334,6.7,6.7,18,0.00,,---,0.00,VWS V13.01,2013-03-10 01:42:00,
2013-03-09 19:48:00,52.2,10.0,26.07,NW,326,6.3,6.3,18,0.00,,---,0.00,VWS V13.01,2013-03-10 01:48:00,
2013-03-09 19:53:00,50.9,10.1,26.07,North,353,9.6,9.6,19,0.00,,---,0.00,VWS V13.01,2013-03-10 01:53:00,
2013-03-09 19:59:00,50.9,10.1,26.07,NW,326,15.0,15.0,19,0.00,,---,0.00,VWS V13.01,2013-03-10 01:59:00,
2013-03-09 20:10:00,50.0,9.4,26.07,NNW,337,8.7,11.0,19,0.00,,---,0.00,VWS V13.01,2013-03-10 02:10:00,
2013-03-09 20:15:00,50.0,9.4,26.10,NNW,333,6.3,11.0,19,0.00,,---,0.00,VWS V13.01,2013-03-10 02:15:00,
2013-03-09 20:20:00,50.0,9.4,26.10,NNE,24,12.3,12.3,19,0.00,,---,0.00,VWS V13.01,2013-03-10 02:20:00,
2013-03-09 20:25:00,48.4,8.0,26.10,East,89,11.9,11.9,19,0.00,,---,0.00,VWS V13.01,2013-03-10 02:25:00,
2013-03-09 20:30:00,48.0,7.7,26.10,NNE,32,6.7,6.7,19,0.00,,---,0.00,VWS V13.01,2013-03-10 02:30:00,
2013-03-09 20:35:00,48.0,7.7,26.10,WNW,285,7.6,7.6,19,0.00,,---,0.00,VWS V13.01,2013-03-10 02:35:00,
2013-03-09 20:40:00,47.8,7.6,26.10,NNE,30,5.8,8.3,19,0.00,,---,0.00,VWS V13.01,2013-03-10 02:40:00,
2013-03-09 20:45:00,47.8,7.6,26.10,NW,322,10.1,12.8,19,0.00,,---,0.00,VWS V13.01,2013-03-10 02:45:00,
2013-03-09 20:50:00,47.1,7.0,26.10,NW,322,5.8,5.8,19,0.00,,---,0.00,VWS V13.01,2013-03-10 02:50:00,
2013-03-09 20:55:00,47.1,7.0,26.10,NW,324,9.6,9.6,19,0.00,,---,0.00,VWS V13.01,2013-03-10 02:55:00,
2013-03-09 21:00:00,47.1,7.0,26.10,NW,321,6.7,6.7,19,0.00,,---,0.00,VWS V13.01,2013-03-10 03:00:00,
2013-03-09 21:05:00,46.2,7.4,26.10,NW,323,7.6,7.6,20,0.00,,---,0.00,VWS V13.01,2013-03-10 03:05:00,
2013-03-09 21:10:00,46.2,7.4,26.13,NNW,330,5.4,5.4,20,0.00,,---,0.00,VWS V13.01,2013-03-10 03:10:00,
2013-03-09 21:15:00,45.7,6.9,26.13,NNW,330,5.4,5.4,20,0.00,,---,0.00,VWS V13.01,2013-03-10 03:15:00,
2013-03-09 21:20:00,45.7,6.9,26.13,NW,322,8.3,8.3,20,0.00,,---,0.00,VWS V13.01,2013-03-10 03:20:00,
2013-03-09 21:25:00,45.7,6.9,26.13,NW,322,8.3,8.3,20,0.00,,---,0.00,VWS V13.01,2013-03-10 03:25:00,
2013-03-09 21:31:00,45.5,6.8,26.13,NW,322,8.3,8.3,20,0.00,,---,0.00,VWS V13.01,2013-03-10 03:31:00,
2013-03-09 21:36:00,45.5,6.8,26.13,NW,322,8.3,8.3,20,0.00,,---,0.00,VWS V13.01,2013-03-10 03:36:00,
2013-03-09 21:41:00,45.1,6.5,26.13,NW,322,8.3,8.3,20,0.00,,---,0.00,VWS V13.01,2013-03-10 03:41:00,
2013-03-09 21:46:00,45.1,6.5,26.13,NW,322,8.3,8.3,20,0.00,,---,0.00,VWS V13.01,2013-03-10 03:46:00,
2013-03-09 21:51:00,44.8,6.2,26.13,NW,322,8.3,8.3,20,0.00,,---,0.00,VWS V13.01,2013-03-10 03:51:00,
2013-03-09 21:56:00,44.2,5.7,26.13,NW,322,8.3,8.3,20,0.00,,---,0.00,VWS V13.01,2013-03-10 03:56:00,
2013-03-09 22:01:00,44.1,5.6,26.13,NW,322,8.3,8.3,20,0.00,,---,0.00,VWS V13.01,2013-03-10 04:01:00,
2013-03-09 22:06:00,44.1,5.6,26.13,NW,322,8.3,8.3,20,0.00,,---,0.00,VWS V13.01,2013-03-10 04:06:00,
2013-03-09 22:11:00,43.9,5.4,26.13,NW,322,8.3,8.3,20,0.00,,---,0.00,VWS V13.01,2013-03-10 04:11:00,
2013-03-09 22:16:00,43.5,5.1,26.13,NW,322,8.3,8.3,20,0.00,,---,0.00,VWS V13.01,2013-03-10 04:16:00,
2013-03-09 22:21:00,43.3,5.0,26.13,NW,322,8.3,8.3,20,0.00,,---,0.00,VWS V13.01,2013-03-10 04:21:00,
2013-03-09 22:26:00,43.5,5.1,26.13,NW,322,8.3,8.3,20,0.00,,---,0.00,VWS V13.01,2013-03-10 04:26:00,
2013-03-09 22:31:00,43.7,5.3,26.13,NW,322,8.3,8.3,20,0.00,,---,0.00,VWS V13.01,2013-03-10 04:31:00,
2013-03-09 22:36:00,43.7,5.3,26.13,NW,322,8.3,8.3,20,0.00,,---,0.00,VWS V13.01,2013-03-10 04:36:00,
2013-03-09 22:41:00,43.3,5.0,26.13,NW,322,8.3,8.3,20,0.00,,---,0.00,VWS V13.01,2013-03-10 04:41:00,
2013-03-09 22:46:00,43.5,5.1,26.13,NW,322,8.3,8.3,20,0.00,,---,0.00,VWS V13.01,2013-03-10 04:46:00,
2013-03-09 22:51:00,43.5,5.1,26.13,NW,322,8.3,8.3,20,0.00,,---,0.00,VWS V13.01,2013-03-10 04:51:00,
2013-03-09 22:56:00,43.5,5.1,26.16,NW,322,8.3,8.3,20,0.00,,---,0.00,VWS V13.01,2013-03-10 04:56:00,
2013-03-09 23:00:00,43.0,4.7,26.16,NW,322,8.3,8.3,20,0.00,,---,0.00,VWS V13.01,2013-03-10 05:00:00,
2013-03-09 23:05:00,43.0,4.7,26.16,NW,322,8.3,8.3,20,0.00,,---,0.00,VWS V13.01,2013-03-10 05:05:00,
2013-03-09 23:10:00,43.3,5.0,26.16,NW,322,8.3,8.3,20,0.00,,---,0.00,VWS V13.01,2013-03-10 05:10:00,
2013-03-09 23:15:00,43.7,5.3,26.16,NW,322,8.3,8.3,20,0.00,,---,0.00,VWS V13.01,2013-03-10 05:15:00,
2013-03-09 23:20:00,43.7,5.3,26.16,NW,322,8.3,8.3,20,0.00,,---,0.00,VWS V13.01,2013-03-10 05:20:00,
2013-03-09 23:25:00,43.3,5.0,26.16,NW,322,8.3,8.3,20,0.00,,---,0.00,VWS V13.01,2013-03-10 05:25:00,
2013-03-09 23:30:00,43.0,4.7,26.16,NW,322,8.3,8.3,20,0.00,,---,0.00,VWS V13.01,2013-03-10 05:30:00,
2013-03-09 23:35:00,42.8,4.5,26.16,NW,322,8.3,8.3,20,0.00,,---,0.00,VWS V13.01,2013-03-10 05:35:00,
2013-03-09 23:40:00,42.3,5.1,26.16,NW,322,8.3,8.3,21,0.00,,---,0.00,VWS V13.01,2013-03-10 05:40:00,
2013-03-09 23:45:00,42.3,5.1,26.16,NW,322,8.3,8.3,21,0.00,,---,0.00,VWS V13.01,2013-03-10 05:45:00,
2013-03-09 23:50:00,41.5,4.5,26.16,NW,322,8.3,8.3,21,0.00,,---,0.00,VWS V13.01,2013-03-10 05:50:00,
2013-03-09 23:55:00,41.4,4.4,26.16,NW,322,8.3,8.3,21,0.00,,---,0.00,VWS V13.01,2013-03-10 05:55:00,